User: anonymous   Login
Location: Oshawa
(43.9000°N, 78.8670°W)
Time: 12:04:50
(UTC-05:00)
Language:

Cosmos 839 Rocket - Orbit

View from above orbital plane
View from above orbital plane
View from above satellite
View from above satellite

Ground track
Ground track

The orbit data is extracted from the following two-line orbital elements,

1  9013U 76067B   17344.55660786 -.00000053 +00000-0 +68703-5 0  9999
2  9013 065.8669 024.0860 0713929 003.3472 097.9388 12.35328942868190
Epoch (UTC): 10 December 2017 13:21:30
Eccentricity: 0.0713929
inclination: 65.8669°
perigee height: 962 km
apogee height: 2091 km
right ascension of ascending node: 24.0860°
argument of perigee: 3.3472°
revolutions per day: 12.35328942
mean anomaly at epoch: 97.9388°
orbit number at epoch: 86819

The dashed part of the orbit path shows where the satellite is in the earth's shadow,  

DLR